Time,TemperatureF,DewpointF,PressureIn,WindDirection,WindDirectionDegrees,WindSpeedMPH,WindSpeedGustMPH,Humidity,HourlyPrecipIn,Conditions,Clouds,dailyrainin,SoftwareType,DateUTC
2013-08-13 00:03:00,72.5,71.2,29.87,SSE,147,0.0,0.9,96,0.01,,,0.01,meteobridge,2013-08-13 04:03:00,
2013-08-13 00:08:00,72.5,71.2,29.87,SSE,147,0.0,0.0,96,0.01,,,0.01,meteobridge,2013-08-13 04:08:00,
2013-08-13 00:13:00,72.3,71.1,29.87,SSE,147,0.0,0.0,96,0.01,,,0.01,meteobridge,2013-08-13 04:13:00,
2013-08-13 00:18:00,72.3,71.4,29.85,SSE,147,0.0,0.0,97,0.01,,,0.01,meteobridge,2013-08-13 04:18:00,
2013-08-13 00:23:00,72.3,71.4,29.85,SSE,147,0.0,2.0,97,0.01,,,0.01,meteobridge,2013-08-13 04:23:00,
2013-08-13 00:28:00,72.1,71.2,29.85,SSE,147,0.0,0.0,97,0.01,,,0.01,meteobridge,2013-08-13 04:28:00,
2013-08-13 00:33:00,72.1,71.2,29.85,SSE,147,0.0,0.0,97,0.01,,,0.01,meteobridge,2013-08-13 04:33:00,
2013-08-13 00:39:00,72.1,71.2,29.85,SSE,148,2.0,2.0,97,0.01,,,0.01,meteobridge,2013-08-13 04:39:00,
2013-08-13 00:44:00,72.1,71.2,29.85,SSE,155,0.0,0.0,97,0.01,,,0.01,meteobridge,2013-08-13 04:44:00,
2013-08-13 00:49:00,72.3,71.4,29.85,SSE,165,0.0,6.0,97,0.01,,,0.01,meteobridge,2013-08-13 04:49:00,
2013-08-13 00:54:00,72.3,71.4,29.85,SSW,209,0.0,6.0,97,0.01,,,0.01,meteobridge,2013-08-13 04:54:00,
2013-08-13 00:59:00,72.3,71.1,29.85,WSW,237,0.9,4.0,96,0.01,,,0.01,meteobridge,2013-08-13 04:59:00,
2013-08-13 01:04:00,72.3,71.1,29.85,South,171,2.0,4.9,96,0.00,,,0.01,meteobridge,2013-08-13 05:04:00,
2013-08-13 01:09:00,72.3,71.1,29.85,SE,143,2.9,6.0,96,0.00,,,0.01,meteobridge,2013-08-13 05:09:00,
2013-08-13 01:14:00,72.3,71.1,29.84,SSW,195,0.9,6.9,96,0.00,,,0.01,meteobridge,2013-08-13 05:14:00,
2013-08-13 01:19:00,72.3,71.1,29.84,South,175,6.0,8.1,96,0.00,,,0.01,meteobridge,2013-08-13 05:19:00,
2013-08-13 01:24:00,72.3,71.1,29.84,West,263,2.0,4.9,96,0.00,,,0.01,meteobridge,2013-08-13 05:24:00,
2013-08-13 01:29:00,72.3,71.1,29.84,SW,236,6.0,10.1,96,0.00,,,0.01,meteobridge,2013-08-13 05:29:00,
2013-08-13 01:34:00,72.3,70.9,29.84,WSW,241,0.0,6.0,95,0.00,,,0.01,meteobridge,2013-08-13 05:34:00,
2013-08-13 01:39:00,72.3,70.9,29.84,SW,224,2.0,4.9,95,0.00,,,0.01,meteobridge,2013-08-13 05:39:00,
2013-08-13 01:44:00,72.1,70.7,29.83,West,265,0.0,6.0,95,0.00,,,0.01,meteobridge,2013-08-13 05:44:00,
2013-08-13 01:49:00,72.1,70.7,29.83,SW,227,0.9,2.0,95,0.00,,,0.01,meteobridge,2013-08-13 05:49:00,
2013-08-13 01:54:00,72.1,70.7,29.83,WSW,240,4.0,4.9,95,0.00,,,0.01,meteobridge,2013-08-13 05:54:00,
2013-08-13 02:00:00,72.1,70.7,29.82,WNW,298,0.0,0.9,95,0.00,,,0.01,meteobridge,2013-08-13 06:00:00,
2013-08-13 02:05:00,72.0,70.2,29.82,SSW,200,2.0,6.0,94,0.00,,,0.01,meteobridge,2013-08-13 06:05:00,
2013-08-13 02:10:00,72.0,70.2,29.82,West,263,2.0,6.0,94,0.00,,,0.01,meteobridge,2013-08-13 06:10:00,
2013-08-13 02:15:00,72.0,70.2,29.82,WSW,251,0.9,4.0,94,0.00,,,0.01,meteobridge,2013-08-13 06:15:00,
2013-08-13 02:20:00,72.0,70.2,29.82,SW,223,0.0,0.0,94,0.00,,,0.01,meteobridge,2013-08-13 06:20:00,
2013-08-13 02:25:00,71.8,70.0,29.82,SSW,200,2.0,4.0,94,0.00,,,0.01,meteobridge,2013-08-13 06:25:00,
2013-08-13 02:30:00,71.8,70.0,29.82,WSW,240,2.9,6.0,94,0.00,,,0.01,meteobridge,2013-08-13 06:30:00,
2013-08-13 02:35:00,71.8,70.3,29.82,SW,216,4.0,6.9,95,0.00,,,0.01,meteobridge,2013-08-13 06:35:00,
2013-08-13 02:40:00,71.8,70.3,29.82,SW,220,0.0,6.0,95,0.00,,,0.01,meteobridge,2013-08-13 06:40:00,
2013-08-13 02:45:00,71.8,70.3,29.82,WSW,237,0.0,2.9,95,0.00,,,0.01,meteobridge,2013-08-13 06:45:00,
2013-08-13 02:50:00,71.8,70.3,29.82,SSW,209,0.0,6.9,95,0.00,,,0.01,meteobridge,2013-08-13 06:50:00,
2013-08-13 02:55:00,71.6,69.8,29.82,WSW,251,2.0,6.0,94,0.00,,,0.01,meteobridge,2013-08-13 06:55:00,
2013-08-13 03:00:00,71.6,69.8,29.82,WNW,288,2.9,6.0,94,0.00,,,0.01,meteobridge,2013-08-13 07:00:00,
2013-08-13 03:05:00,71.6,69.8,29.82,West,264,2.0,4.0,94,0.00,,,0.01,meteobridge,2013-08-13 07:05:00,
2013-08-13 03:10:00,71.6,69.4,29.82,WSW,257,0.0,4.9,93,0.00,,,0.01,meteobridge,2013-08-13 07:10:00,
2013-08-13 03:15:00,71.6,69.1,29.82,WNW,294,0.0,6.9,92,0.00,,,0.01,meteobridge,2013-08-13 07:15:00,
2013-08-13 03:20:00,71.6,69.1,29.82,WSW,247,0.9,6.0,92,0.00,,,0.01,meteobridge,2013-08-13 07:20:00,
2013-08-13 03:26:00,71.6,68.9,29.82,WSW,250,0.0,2.0,91,0.00,,,0.01,meteobridge,2013-08-13 07:26:00,
2013-08-13 03:31:00,71.6,68.9,29.82,WSW,241,0.0,4.0,91,0.00,,,0.01,meteobridge,2013-08-13 07:31:00,
2013-08-13 03:36:00,71.6,68.9,29.82,West,261,0.9,2.0,91,0.00,,,0.01,meteobridge,2013-08-13 07:36:00,
2013-08-13 03:41:00,71.4,68.7,29.82,West,281,2.0,6.0,91,0.00,,,0.01,meteobridge,2013-08-13 07:41:00,
2013-08-13 03:46:00,71.4,68.4,29.83,West,268,2.9,2.9,90,0.00,,,0.01,meteobridge,2013-08-13 07:46:00,
2013-08-13 03:51:00,71.4,68.4,29.83,West,268,0.0,6.0,90,0.00,,,0.01,meteobridge,2013-08-13 07:51:00,
2013-08-13 03:56:00,71.4,68.4,29.83,West,260,0.9,2.0,90,0.00,,,0.01,meteobridge,2013-08-13 07:56:00,
2013-08-13 04:02:00,71.4,68.4,29.83,WSW,258,2.0,4.0,90,0.00,,,0.01,meteobridge,2013-08-13 08:02:00,
2013-08-13 04:07:00,71.2,67.8,29.83,WSW,248,0.9,6.0,89,0.00,,,0.01,meteobridge,2013-08-13 08:07:00,
2013-08-13 04:12:00,71.2,67.8,29.83,WSW,237,2.9,2.9,89,0.00,,,0.01,meteobridge,2013-08-13 08:12:00,
2013-08-13 04:17:00,71.1,67.6,29.82,SSW,203,6.9,6.9,89,0.00,,,0.01,meteobridge,2013-08-13 08:17:00,
2013-08-13 04:22:00,70.9,67.8,29.82,WSW,251,0.9,6.0,90,0.01,,,0.02,meteobridge,2013-08-13 08:22:00,
2013-08-13 04:27:00,70.9,68.2,29.82,WSW,258,2.0,4.0,91,0.02,,,0.03,meteobridge,2013-08-13 08:27:00,
2013-08-13 04:32:00,70.3,67.6,29.83,West,264,0.0,2.0,91,0.02,,,0.03,meteobridge,2013-08-13 08:32:00,
2013-08-13 04:37:00,70.3,67.8,29.83,West,267,0.9,4.9,92,0.04,,,0.05,meteobridge,2013-08-13 08:37:00,
2013-08-13 04:42:00,70.2,68.0,29.83,WSW,239,0.0,4.0,93,0.06,,,0.07,meteobridge,2013-08-13 08:42:00,
2013-08-13 04:47:00,70.0,68.2,29.82,SW,220,0.0,4.0,94,0.06,,,0.07,meteobridge,2013-08-13 08:47:00,
2013-08-13 04:52:00,69.8,68.4,29.82,SW,220,0.0,0.0,95,0.06,,,0.07,meteobridge,2013-08-13 08:52:00,
2013-08-13 04:58:00,69.8,68.4,29.82,WSW,239,0.0,2.0,95,0.06,,,0.07,meteobridge,2013-08-13 08:58:00,
2013-08-13 05:03:00,69.8,68.4,29.82,WSW,239,0.0,0.0,95,0.07,,,0.08,meteobridge,2013-08-13 09:03:00,
2013-08-13 05:08:00,69.8,68.4,29.82,WSW,239,0.0,0.9,95,0.07,,,0.08,meteobridge,2013-08-13 09:08:00,
2013-08-13 05:13:00,69.6,68.2,29.82,WSW,239,0.0,0.0,95,0.07,,,0.08,meteobridge,2013-08-13 09:13:00,
2013-08-13 05:18:00,69.6,68.4,29.83,WSW,239,0.0,2.0,96,0.06,,,0.08,meteobridge,2013-08-13 09:18:00,
2013-08-13 05:23:00,69.6,68.4,29.83,WSW,239,0.0,0.0,96,0.06,,,0.08,meteobridge,2013-08-13 09:23:00,
2013-08-13 05:28:00,69.4,68.2,29.83,WSW,240,0.9,2.0,96,0.05,,,0.08,meteobridge,2013-08-13 09:28:00,
2013-08-13 05:33:00,69.4,68.2,29.83,WSW,240,0.0,0.9,96,0.04,,,0.08,meteobridge,2013-08-13 09:33:00,
2013-08-13 05:38:00,69.4,68.2,29.83,WSW,240,0.0,0.9,96,0.02,,,0.08,meteobridge,2013-08-13 09:38:00,
2013-08-13 05:43:00,69.3,68.0,29.83,WSW,240,0.0,0.0,96,0.01,,,0.08,meteobridge,2013-08-13 09:43:00,
2013-08-13 05:48:00,69.1,67.8,29.82,WSW,240,0.0,0.9,96,0.01,,,0.08,meteobridge,2013-08-13 09:48:00,
2013-08-13 05:54:00,69.1,68.2,29.82,WSW,240,0.0,0.0,97,0.01,,,0.08,meteobridge,2013-08-13 09:54:00,
2013-08-13 05:59:00,69.1,68.2,29.82,WSW,240,0.0,0.0,97,0.00,,,0.08,meteobridge,2013-08-13 09:59:00,
2013-08-13 06:04:00,68.9,68.0,29.82,WSW,240,0.0,0.0,97,0.00,,,0.08,meteobridge,2013-08-13 10:04:00,
2013-08-13 06:09:00,68.9,68.0,29.82,WSW,240,0.0,0.0,97,0.00,,,0.08,meteobridge,2013-08-13 10:09:00,
2013-08-13 06:14:00,68.7,67.8,29.83,WSW,240,0.0,0.0,97,0.00,,,0.08,meteobridge,2013-08-13 10:14:00,
2013-08-13 06:19:00,68.7,67.8,29.83,WSW,240,0.0,0.0,97,0.00,,,0.08,meteobridge,2013-08-13 10:19:00,
2013-08-13 06:25:00,68.5,67.6,29.83,WSW,246,2.0,2.9,97,0.00,,,0.08,meteobridge,2013-08-13 10:25:00,
2013-08-13 06:30:00,68.5,67.6,29.83,WSW,248,0.0,0.0,97,0.00,,,0.08,meteobridge,2013-08-13 10:30:00,
2013-08-13 06:35:00,68.5,67.6,29.83,WSW,250,0.0,2.9,97,0.00,,,0.08,meteobridge,2013-08-13 10:35:00,
2013-08-13 06:40:00,68.5,67.6,29.83,West,281,4.0,4.9,97,0.00,,,0.08,meteobridge,2013-08-13 10:40:00,
2013-08-13 06:45:00,68.5,68.0,29.84,WSW,254,0.9,4.9,98,0.00,,,0.08,meteobridge,2013-08-13 10:45:00,
2013-08-13 06:50:00,68.5,68.0,29.84,WSW,257,0.0,2.9,98,0.00,,,0.08,meteobridge,2013-08-13 10:50:00,
2013-08-13 06:56:00,68.5,68.0,29.84,WSW,257,0.0,2.0,98,0.00,,,0.08,meteobridge,2013-08-13 10:56:00,
2013-08-13 07:01:00,68.5,68.0,29.84,WSW,257,0.9,2.0,98,0.00,,,0.08,meteobridge,2013-08-13 11:01:00,
2013-08-13 07:06:00,68.5,68.0,29.84,WSW,257,0.0,2.9,98,0.00,,,0.08,meteobridge,2013-08-13 11:06:00,
2013-08-13 07:11:00,68.5,68.0,29.84,WSW,257,0.0,0.0,98,0.00,,,0.08,meteobridge,2013-08-13 11:11:00,
2013-08-13 07:16:00,68.5,68.0,29.84,WSW,257,0.0,0.0,98,0.00,,,0.08,meteobridge,2013-08-13 11:16:00,
2013-08-13 07:21:00,68.7,68.2,29.84,WSW,257,2.0,2.0,98,0.00,,,0.08,meteobridge,2013-08-13 11:21:00,
2013-08-13 07:26:00,68.7,68.2,29.84,WSW,257,0.0,0.9,98,0.00,,,0.08,meteobridge,2013-08-13 11:26:00,
2013-08-13 07:32:00,68.9,68.4,29.84,WSW,257,0.0,0.0,98,0.00,,,0.08,meteobridge,2013-08-13 11:32:00,
2013-08-13 07:37:00,68.9,68.4,29.84,WSW,257,0.0,0.0,98,0.00,,,0.08,meteobridge,2013-08-13 11:37:00,
2013-08-13 07:42:00,68.9,68.4,29.84,WSW,257,0.0,0.9,98,0.00,,,0.08,meteobridge,2013-08-13 11:42:00,
2013-08-13 07:47:00,69.1,68.5,29.84,WSW,257,0.0,0.0,98,0.00,,,0.08,meteobridge,2013-08-13 11:47:00,
2013-08-13 07:52:00,69.1,68.5,29.84,WSW,257,0.0,0.9,98,0.00,,,0.08,meteobridge,2013-08-13 11:52:00,
2013-08-13 07:57:00,69.3,68.7,29.84,WSW,257,0.0,0.0,98,0.00,,,0.08,meteobridge,2013-08-13 11:57:00,
2013-08-13 08:02:00,69.4,68.9,29.84,WSW,257,0.0,0.0,98,0.00,,,0.08,meteobridge,2013-08-13 12:02:00,
2013-08-13 08:07:00,69.4,68.9,29.84,WSW,257,0.9,2.0,98,0.00,,,0.08,meteobridge,2013-08-13 12:07:00,
2013-08-13 08:12:00,69.4,68.9,29.84,WSW,257,0.0,0.0,98,0.00,,,0.08,meteobridge,2013-08-13 12:12:00,
2013-08-13 08:18:00,69.6,69.1,29.84,WSW,257,0.0,0.0,98,0.00,,,0.08,meteobridge,2013-08-13 12:18:00,
2013-08-13 08:23:00,69.6,69.1,29.84,WSW,257,2.0,2.9,98,0.00,,,0.08,meteobridge,2013-08-13 12:23:00,
2013-08-13 08:28:00,69.8,69.3,29.84,WSW,257,0.0,0.0,98,0.00,,,0.08,meteobridge,2013-08-13 12:28:00,
2013-08-13 08:33:00,69.8,69.3,29.85,WSW,258,0.9,4.0,98,0.00,,,0.08,meteobridge,2013-08-13 12:33:00,
2013-08-13 08:38:00,69.8,69.3,29.85,WSW,257,0.9,2.0,98,0.00,,,0.08,meteobridge,2013-08-13 12:38:00,
2013-08-13 08:43:00,70.0,69.4,29.85,WSW,257,0.0,2.0,98,0.00,,,0.08,meteobridge,2013-08-13 12:43:00,
2013-08-13 08:48:00,70.0,69.4,29.85,WSW,257,2.0,2.0,98,0.00,,,0.08,meteobridge,2013-08-13 12:48:00,
2013-08-13 08:54:00,70.2,69.6,29.85,WSW,257,0.0,0.0,98,0.00,,,0.08,meteobridge,2013-08-13 12:54:00,
2013-08-13 08:59:00,70.2,69.6,29.85,WSW,257,0.0,0.0,98,0.00,,,0.08,meteobridge,2013-08-13 12:59:00,
2013-08-13 09:04:00,70.3,69.8,29.85,WSW,257,0.9,2.0,98,0.00,,,0.08,meteobridge,2013-08-13 13:04:00,
2013-08-13 09:09:00,70.3,69.8,29.85,WSW,257,0.0,0.0,98,0.00,,,0.08,meteobridge,2013-08-13 13:09:00,
2013-08-13 09:14:00,70.3,69.8,29.85,WSW,257,2.0,2.0,98,0.00,,,0.08,meteobridge,2013-08-13 13:14:00,
2013-08-13 09:19:00,70.3,69.8,29.85,WSW,257,0.0,0.0,98,0.00,,,0.08,meteobridge,2013-08-13 13:19:00,
2013-08-13 09:25:00,70.5,70.0,29.85,WSW,257,0.0,0.0,98,0.00,,,0.08,meteobridge,2013-08-13 13:25:00,
2013-08-13 09:30:00,70.9,70.3,29.86,WSW,256,0.9,2.9,98,0.00,,,0.08,meteobridge,2013-08-13 13:30:00,
2013-08-13 09:35:00,70.9,70.3,29.86,WSW,258,0.0,0.0,98,0.00,,,0.08,meteobridge,2013-08-13 13:35:00,
2013-08-13 09:40:00,70.9,70.3,29.86,WSW,258,0.9,2.0,98,0.00,,,0.08,meteobridge,2013-08-13 13:40:00,
2013-08-13 09:45:00,71.1,70.5,29.85,WSW,258,0.0,0.9,98,0.00,,,0.08,meteobridge,2013-08-13 13:45:00,
2013-08-13 09:51:00,70.9,70.3,29.85,SSW,199,0.0,2.0,98,0.00,,,0.08,meteobridge,2013-08-13 13:51:00,
2013-08-13 09:56:00,71.1,70.5,29.85,WNW,292,0.0,0.0,98,0.00,,,0.08,meteobridge,2013-08-13 13:56:00,
2013-08-13 10:01:00,71.1,70.5,29.86,WNW,289,0.0,2.0,98,0.00,,,0.08,meteobridge,2013-08-13 14:01:00,
2013-08-13 10:06:00,71.2,70.7,29.86,West,280,0.9,2.0,98,0.00,,,0.08,meteobridge,2013-08-13 14:06:00,
2013-08-13 10:11:00,71.4,70.9,29.86,West,280,0.0,0.0,98,0.00,,,0.08,meteobridge,2013-08-13 14:11:00,
2013-08-13 10:16:00,71.6,71.1,29.86,West,280,0.0,2.0,98,0.00,,,0.08,meteobridge,2013-08-13 14:16:00,
2013-08-13 10:21:00,71.8,70.9,29.86,West,278,0.0,0.0,97,0.00,,,0.08,meteobridge,2013-08-13 14:21:00,
2013-08-13 10:27:00,71.8,70.9,29.86,West,281,0.0,4.0,97,0.00,,,0.08,meteobridge,2013-08-13 14:27:00,
2013-08-13 10:32:00,72.1,71.2,29.87,West,281,0.0,0.0,97,0.00,,,0.08,meteobridge,2013-08-13 14:32:00,
2013-08-13 10:37:00,72.1,71.2,29.87,West,281,0.0,2.0,97,0.00,,,0.08,meteobridge,2013-08-13 14:37:00,
2013-08-13 10:42:00,72.1,71.2,29.87,West,280,0.0,2.0,97,0.00,,,0.08,meteobridge,2013-08-13 14:42:00,
2013-08-13 10:47:00,72.3,71.4,29.87,West,263,2.9,2.9,97,0.00,,,0.08,meteobridge,2013-08-13 14:47:00,
2013-08-13 10:52:00,72.9,72.0,29.87,West,265,0.0,0.0,97,0.00,,,0.08,meteobridge,2013-08-13 14:52:00,
2013-08-13 10:57:00,73.0,71.8,29.87,SW,215,2.0,4.9,96,0.00,,,0.08,meteobridge,2013-08-13 14:57:00,
2013-08-13 11:02:00,73.0,71.6,29.86,SW,222,0.0,4.9,95,0.00,,,0.08,meteobridge,2013-08-13 15:02:00,
2013-08-13 11:07:00,73.2,71.4,29.86,SW,219,0.0,2.0,94,0.00,,,0.08,meteobridge,2013-08-13 15:07:00,
2013-08-13 11:12:00,73.2,71.4,29.86,SW,229,0.0,2.0,94,0.00,,,0.08,meteobridge,2013-08-13 15:12:00,
2013-08-13 11:17:00,73.9,71.4,29.86,West,278,2.0,6.0,92,0.00,,,0.08,meteobridge,2013-08-13 15:17:00,
2013-08-13 11:23:00,74.5,71.6,29.86,SW,230,0.0,0.9,91,0.00,,,0.08,meteobridge,2013-08-13 15:23:00,
2013-08-13 11:28:00,74.7,71.2,29.86,WSW,246,4.9,4.9,89,0.00,,,0.08,meteobridge,2013-08-13 15:28:00,
2013-08-13 11:33:00,74.7,70.5,29.87,West,277,4.0,6.0,87,0.00,,,0.08,meteobridge,2013-08-13 15:33:00,
2013-08-13 11:38:00,74.7,70.2,29.87,SSW,199,0.0,8.1,86,0.00,,,0.08,meteobridge,2013-08-13 15:38:00,
2013-08-13 11:43:00,75.4,71.2,29.87,SSW,199,2.0,4.9,87,0.00,,,0.08,meteobridge,2013-08-13 15:43:00,
2013-08-13 11:48:00,75.7,70.9,29.87,SW,220,0.0,6.0,85,0.00,,,0.08,meteobridge,2013-08-13 15:48:00,
2013-08-13 11:53:00,76.3,71.1,29.87,WSW,251,4.0,4.9,84,0.00,,,0.08,meteobridge,2013-08-13 15:53:00,
2013-08-13 11:58:00,76.8,70.9,29.87,WSW,257,2.0,4.9,82,0.00,,,0.08,meteobridge,2013-08-13 15:58:00,
2013-08-13 12:03:00,77.2,71.2,29.86,WSW,244,2.9,2.9,82,0.00,,,0.08,meteobridge,2013-08-13 16:03:00,
2013-08-13 12:08:00,77.4,70.0,29.86,South,182,2.0,6.0,78,0.00,,,0.08,meteobridge,2013-08-13 16:08:00,
2013-08-13 12:13:00,77.5,69.8,29.86,South,178,0.9,8.1,77,0.00,,,0.08,meteobridge,2013-08-13 16:13:00,
2013-08-13 12:18:00,77.7,69.6,29.86,South,171,2.9,6.0,76,0.00,,,0.08,meteobridge,2013-08-13 16:18:00,
2013-08-13 12:23:00,78.3,70.5,29.86,SW,220,0.0,4.9,77,0.00,,,0.08,meteobridge,2013-08-13 16:23:00,
2013-08-13 12:28:00,78.1,70.0,29.86,SSW,198,0.9,4.9,76,0.00,,,0.08,meteobridge,2013-08-13 16:28:00,
2013-08-13 12:33:00,78.3,70.0,29.85,West,265,0.9,8.1,76,0.00,,,0.08,meteobridge,2013-08-13 16:33:00,
2013-08-13 12:38:00,78.3,69.6,29.85,South,188,0.9,2.9,75,0.00,,,0.08,meteobridge,2013-08-13 16:38:00,
2013-08-13 12:43:00,78.3,69.6,29.85,West,263,0.0,6.0,75,0.00,,,0.08,meteobridge,2013-08-13 16:43:00,
2013-08-13 12:49:00,78.3,70.0,29.85,SW,232,0.9,4.9,76,0.00,,,0.08,meteobridge,2013-08-13 16:49:00,
2013-08-13 12:54:00,78.3,69.3,29.85,South,188,0.0,2.9,74,0.00,,,0.08,meteobridge,2013-08-13 16:54:00,
2013-08-13 12:59:00,78.3,69.6,29.85,WSW,248,4.9,6.0,75,0.00,,,0.08,meteobridge,2013-08-13 16:59:00,
2013-08-13 13:04:00,78.1,69.4,29.85,SW,230,0.9,6.0,75,0.00,,,0.08,meteobridge,2013-08-13 17:04:00,
2013-08-13 13:14:00,77.7,69.1,29.85,West,272,4.9,6.9,75,0.00,,,0.08,meteobridge,2013-08-13 17:14:00,
2013-08-13 13:19:00,77.7,69.6,29.85,West,267,2.0,6.9,76,0.00,,,0.08,meteobridge,2013-08-13 17:19:00,
2013-08-13 13:24:00,77.9,68.9,29.85,WNW,282,2.9,6.0,74,0.00,,,0.08,meteobridge,2013-08-13 17:24:00,
2013-08-13 13:29:00,77.9,69.3,29.85,West,263,2.0,8.1,75,0.00,,,0.08,meteobridge,2013-08-13 17:29:00,
2013-08-13 13:34:00,77.0,70.0,29.84,SSW,193,0.9,6.9,79,0.02,,,0.10,meteobridge,2013-08-13 17:34:00,
2013-08-13 13:39:00,75.7,70.5,29.84,West,275,4.0,8.1,84,0.04,,,0.12,meteobridge,2013-08-13 17:39:00,
2013-08-13 13:44:00,75.4,70.9,29.84,WSW,248,2.0,4.9,86,0.04,,,0.12,meteobridge,2013-08-13 17:44:00,
2013-08-13 13:49:00,74.8,71.1,29.84,WSW,248,2.0,8.1,88,0.04,,,0.12,meteobridge,2013-08-13 17:49:00,
2013-08-13 13:54:00,74.5,71.1,29.84,NW,304,0.0,6.0,89,0.05,,,0.13,meteobridge,2013-08-13 17:54:00,
2013-08-13 13:59:00,74.5,71.6,29.85,NW,305,0.9,4.0,91,0.05,,,0.13,meteobridge,2013-08-13 17:59:00,
2013-08-13 14:04:00,73.9,71.1,29.85,WNW,298,0.9,6.9,91,0.07,,,0.15,meteobridge,2013-08-13 18:04:00,
2013-08-13 14:09:00,71.6,68.2,29.85,North,0,0.0,16.1,89,0.20,,,0.28,meteobridge,2013-08-13 18:09:00,
2013-08-13 14:14:00,70.0,67.3,29.87,West,271,0.0,0.0,91,0.29,,,0.37,meteobridge,2013-08-13 18:14:00,
2013-08-13 14:19:00,69.6,67.5,29.87,West,271,0.0,0.0,93,0.31,,,0.39,meteobridge,2013-08-13 18:19:00,
2013-08-13 14:24:00,69.1,67.3,29.87,SW,230,0.0,4.9,94,0.36,,,0.44,meteobridge,2013-08-13 18:24:00,
2013-08-13 14:29:00,68.9,67.5,29.87,SW,230,0.0,0.0,95,0.35,,,0.44,meteobridge,2013-08-13 18:29:00,
2013-08-13 14:35:00,68.9,67.5,29.87,SW,230,0.0,0.0,95,0.34,,,0.44,meteobridge,2013-08-13 18:35:00,
2013-08-13 14:40:00,69.3,68.0,29.87,SW,230,0.0,0.0,96,0.32,,,0.44,meteobridge,2013-08-13 18:40:00,
2013-08-13 14:45:00,69.6,68.4,29.86,SW,230,0.0,0.0,96,0.32,,,0.44,meteobridge,2013-08-13 18:45:00,
2013-08-13 14:50:00,70.2,69.3,29.86,SW,230,0.0,0.0,97,0.31,,,0.44,meteobridge,2013-08-13 18:50:00,
2013-08-13 14:56:00,70.5,69.6,29.86,SW,230,0.0,0.0,97,0.31,,,0.44,meteobridge,2013-08-13 18:56:00,
2013-08-13 15:01:00,70.9,70.0,29.86,SW,230,0.0,0.0,97,0.31,,,0.44,meteobridge,2013-08-13 19:01:00,
2013-08-13 15:06:00,71.2,70.3,29.86,SW,230,0.0,0.0,97,0.25,,,0.44,meteobridge,2013-08-13 19:06:00,
2013-08-13 15:12:00,72.0,71.1,29.86,SW,230,0.0,0.0,97,0.09,,,0.44,meteobridge,2013-08-13 19:12:00,
2013-08-13 15:17:00,72.7,71.8,29.86,SW,232,0.0,0.0,97,0.06,,,0.44,meteobridge,2013-08-13 19:17:00,
2013-08-13 15:22:00,73.2,72.3,29.86,SW,232,0.0,0.0,97,0.01,,,0.44,meteobridge,2013-08-13 19:22:00,
2013-08-13 15:27:00,73.8,72.5,29.86,SW,232,0.0,2.0,96,0.00,,,0.44,meteobridge,2013-08-13 19:27:00,
2013-08-13 15:32:00,74.1,72.7,29.85,SW,232,0.0,0.9,95,0.00,,,0.44,meteobridge,2013-08-13 19:32:00,
2013-08-13 15:37:00,74.5,72.7,29.85,SW,232,0.0,0.9,94,0.00,,,0.44,meteobridge,2013-08-13 19:37:00,
2013-08-13 15:42:00,74.7,72.1,29.85,SW,233,0.0,2.9,92,0.00,,,0.44,meteobridge,2013-08-13 19:42:00,
2013-08-13 15:47:00,75.0,72.0,29.85,SW,234,0.9,0.9,90,0.00,,,0.44,meteobridge,2013-08-13 19:47:00,
2013-08-13 15:53:00,75.4,71.2,29.85,West,277,0.0,0.0,87,0.00,,,0.44,meteobridge,2013-08-13 19:53:00,
2013-08-13 15:58:00,75.7,70.9,29.85,West,277,0.0,0.9,85,0.00,,,0.44,meteobridge,2013-08-13 19:58:00,
2013-08-13 16:03:00,76.3,71.1,29.85,NNW,347,0.0,2.9,84,0.00,,,0.44,meteobridge,2013-08-13 20:03:00,
2013-08-13 16:08:00,75.9,69.6,29.85,NNW,337,0.0,6.0,81,0.00,,,0.44,meteobridge,2013-08-13 20:08:00,
2013-08-13 16:14:00,76.1,69.8,29.85,North,1,0.0,0.0,81,0.00,,,0.44,meteobridge,2013-08-13 20:14:00,
2013-08-13 16:19:00,76.5,69.8,29.85,North,6,0.0,2.9,80,0.00,,,0.44,meteobridge,2013-08-13 20:19:00,
2013-08-13 16:24:00,76.6,68.5,29.85,North,4,2.9,2.9,76,0.00,,,0.44,meteobridge,2013-08-13 20:24:00,
2013-08-13 16:29:00,76.8,67.5,29.85,NW,304,2.0,4.9,73,0.00,,,0.44,meteobridge,2013-08-13 20:29:00,
2013-08-13 16:34:00,77.2,67.5,29.84,NNE,18,0.0,6.0,72,0.00,,,0.44,meteobridge,2013-08-13 20:34:00,
2013-08-13 16:39:00,77.4,66.4,29.84,NNE,21,8.1,8.1,69,0.00,,,0.44,meteobridge,2013-08-13 20:39:00,
2013-08-13 16:44:00,77.5,66.2,29.84,North,11,0.0,6.9,68,0.00,,,0.44,meteobridge,2013-08-13 20:44:00,
2013-08-13 16:49:00,77.7,65.8,29.84,NNE,28,2.0,2.0,67,0.00,,,0.44,meteobridge,2013-08-13 20:49:00,
2013-08-13 16:54:00,77.9,66.0,29.84,North,6,0.0,2.9,67,0.00,,,0.44,meteobridge,2013-08-13 20:54:00,
2013-08-13 16:59:00,77.9,66.0,29.85,NNE,20,0.9,6.9,67,0.00,,,0.44,meteobridge,2013-08-13 20:59:00,
2013-08-13 17:09:00,78.1,66.2,29.85,NW,313,0.9,6.0,67,0.00,,,0.44,meteobridge,2013-08-13 21:09:00,
2013-08-13 17:14:00,78.4,64.8,29.85,North,11,0.9,4.9,63,0.00,,,0.44,meteobridge,2013-08-13 21:14:00,
2013-08-13 17:19:00,78.6,64.6,29.85,WNW,298,2.9,11.0,62,0.00,,,0.44,meteobridge,2013-08-13 21:19:00,
2013-08-13 17:24:00,78.6,65.8,29.85,North,350,0.0,0.0,65,0.00,,,0.44,meteobridge,2013-08-13 21:24:00,
2013-08-13 17:29:00,78.4,64.8,29.85,North,1,4.0,6.0,63,0.00,,,0.44,meteobridge,2013-08-13 21:29:00,
2013-08-13 17:34:00,78.1,64.4,29.85,NNE,16,2.0,10.1,63,0.00,,,0.44,meteobridge,2013-08-13 21:34:00,
2013-08-13 17:39:00,77.7,64.0,29.85,NNE,27,0.9,4.0,63,0.00,,,0.44,meteobridge,2013-08-13 21:39:00,
2013-08-13 17:44:00,77.5,64.8,29.85,NNE,18,0.9,2.9,65,0.00,,,0.44,meteobridge,2013-08-13 21:44:00,
2013-08-13 17:49:00,77.4,64.8,29.85,West,270,0.9,4.9,65,0.00,,,0.44,meteobridge,2013-08-13 21:49:00,
2013-08-13 17:54:00,77.4,65.1,29.85,North,3,2.0,2.9,66,0.00,,,0.44,meteobridge,2013-08-13 21:54:00,
2013-08-13 17:59:00,77.4,64.2,29.85,NNE,31,0.9,10.1,64,0.00,,,0.44,meteobridge,2013-08-13 21:59:00,
2013-08-13 18:04:00,77.0,64.8,29.85,NNE,21,2.9,4.9,66,0.00,,,0.44,meteobridge,2013-08-13 22:04:00,
2013-08-13 18:09:00,76.5,63.9,29.85,NNE,31,4.9,4.9,65,0.00,,,0.44,meteobridge,2013-08-13 22:09:00,
2013-08-13 18:14:00,76.1,63.5,29.86,NNE,13,2.0,4.0,65,0.00,,,0.44,meteobridge,2013-08-13 22:14:00,
2013-08-13 18:19:00,76.1,64.4,29.86,North,353,2.9,2.9,67,0.00,,,0.44,meteobridge,2013-08-13 22:19:00,
2013-08-13 18:24:00,75.9,64.2,29.86,North,356,6.0,6.9,67,0.00,,,0.44,meteobridge,2013-08-13 22:24:00,
2013-08-13 18:29:00,75.7,62.8,29.87,NNW,343,2.0,6.9,64,0.00,,,0.44,meteobridge,2013-08-13 22:29:00,
2013-08-13 18:34:00,75.7,62.8,29.87,WNW,288,2.0,6.0,64,0.00,,,0.44,meteobridge,2013-08-13 22:34:00,
2013-08-13 18:39:00,75.6,63.0,29.87,North,0,2.0,4.9,65,0.00,,,0.44,meteobridge,2013-08-13 22:39:00,
2013-08-13 18:44:00,75.4,62.8,29.87,North,0,2.0,6.9,65,0.00,,,0.44,meteobridge,2013-08-13 22:44:00,
2013-08-13 18:49:00,75.4,63.1,29.87,North,0,2.0,2.9,66,0.00,,,0.44,meteobridge,2013-08-13 22:49:00,
2013-08-13 18:55:00,75.0,62.4,29.87,North,11,6.0,6.0,65,0.00,,,0.44,meteobridge,2013-08-13 22:55:00,
2013-08-13 19:00:00,74.8,62.2,29.87,SSW,199,2.0,8.1,65,0.00,,,0.44,meteobridge,2013-08-13 23:00:00,
2013-08-13 19:05:00,74.7,62.1,29.87,NW,326,0.0,2.9,65,0.00,,,0.44,meteobridge,2013-08-13 23:05:00,
2013-08-13 19:10:00,74.8,62.2,29.87,North,3,2.9,4.9,65,0.00,,,0.44,meteobridge,2013-08-13 23:10:00,
2013-08-13 19:15:00,74.7,62.6,29.88,North,7,0.0,2.9,66,0.00,,,0.44,meteobridge,2013-08-13 23:15:00,
2013-08-13 19:20:00,74.7,62.6,29.88,NNE,17,0.9,0.9,66,0.00,,,0.44,meteobridge,2013-08-13 23:20:00,
2013-08-13 19:25:00,74.5,62.4,29.88,NNE,27,2.0,4.9,66,0.00,,,0.44,meteobridge,2013-08-13 23:25:00,
2013-08-13 19:30:00,73.9,61.9,29.88,NNE,27,0.0,2.9,66,0.00,,,0.44,meteobridge,2013-08-13 23:30:00,
2013-08-13 19:35:00,73.9,62.2,29.88,West,270,0.9,4.9,67,0.00,,,0.44,meteobridge,2013-08-13 23:35:00,
2013-08-13 19:40:00,73.6,61.9,29.88,North,6,0.0,2.0,67,0.00,,,0.44,meteobridge,2013-08-13 23:40:00,
2013-08-13 19:45:00,73.2,62.1,29.89,North,357,2.0,2.0,68,0.00,,,0.44,meteobridge,2013-08-13 23:45:00,
2013-08-13 19:50:00,73.2,62.1,29.89,NW,309,0.0,2.9,68,0.00,,,0.44,meteobridge,2013-08-13 23:50:00,
2013-08-13 19:55:00,73.0,61.9,29.89,NW,309,0.0,2.0,68,0.00,,,0.44,meteobridge,2013-08-13 23:55:00,
2013-08-13 20:01:00,72.7,61.5,29.89,NW,309,0.0,0.9,68,0.00,,,0.44,meteobridge,2013-08-14 00:01:00,
2013-08-13 20:06:00,72.5,61.7,29.89,NW,309,0.0,0.0,69,0.00,,,0.44,meteobridge,2013-08-14 00:06:00,
2013-08-13 20:11:00,72.3,61.5,29.89,NW,312,0.0,0.0,69,0.00,,,0.44,meteobridge,2013-08-14 00:11:00,
2013-08-13 20:16:00,72.1,61.9,29.90,North,11,0.0,0.0,70,0.00,,,0.44,meteobridge,2013-08-14 00:16:00,
2013-08-13 20:22:00,72.0,61.7,29.90,North,11,0.9,0.9,70,0.00,,,0.44,meteobridge,2013-08-14 00:22:00,
2013-08-13 20:27:00,71.8,61.0,29.90,WNW,296,2.0,6.9,69,0.00,,,0.44,meteobridge,2013-08-14 00:27:00,
2013-08-13 20:32:00,71.8,61.0,29.90,North,0,0.0,0.0,69,0.00,,,0.44,meteobridge,2013-08-14 00:32:00,
2013-08-13 20:37:00,71.4,61.2,29.90,North,0,0.0,0.0,70,0.00,,,0.44,meteobridge,2013-08-14 00:37:00,
2013-08-13 20:43:00,71.2,61.3,29.90,North,359,0.0,0.0,71,0.00,,,0.44,meteobridge,2013-08-14 00:43:00,
2013-08-13 20:48:00,71.1,61.2,29.91,North,359,0.0,0.0,71,0.00,,,0.44,meteobridge,2013-08-14 00:48:00,
2013-08-13 20:53:00,70.9,60.6,29.91,North,0,0.0,0.0,70,0.00,,,0.44,meteobridge,2013-08-14 00:53:00,
2013-08-13 20:58:00,70.9,60.6,29.91,North,0,0.0,0.0,70,0.00,,,0.44,meteobridge,2013-08-14 00:58:00,
2013-08-13 21:03:00,70.9,60.6,29.91,NW,312,0.0,2.0,70,0.00,,,0.44,meteobridge,2013-08-14 01:03:00,
2013-08-13 21:08:00,70.9,60.3,29.91,NW,315,0.0,0.9,69,0.00,,,0.44,meteobridge,2013-08-14 01:08:00,
2013-08-13 21:13:00,70.5,60.3,29.91,NNW,346,0.0,2.0,70,0.00,,,0.44,meteobridge,2013-08-14 01:13:00,
2013-08-13 21:18:00,70.3,60.4,29.91,NNW,346,0.0,0.0,71,0.00,,,0.44,meteobridge,2013-08-14 01:18:00,
2013-08-13 21:23:00,70.3,60.1,29.91,NNW,346,0.0,0.0,70,0.00,,,0.44,meteobridge,2013-08-14 01:23:00,
2013-08-13 21:28:00,70.2,59.9,29.91,NNW,344,0.0,0.0,70,0.00,,,0.44,meteobridge,2013-08-14 01:28:00,
2013-08-13 21:33:00,70.2,60.3,29.92,NNW,343,2.0,2.0,71,0.00,,,0.44,meteobridge,2013-08-14 01:33:00,
2013-08-13 21:39:00,70.0,60.1,29.92,NNW,343,0.0,2.0,71,0.00,,,0.44,meteobridge,2013-08-14 01:39:00,
2013-08-13 21:44:00,70.0,60.1,29.92,North,359,0.0,0.0,71,0.00,,,0.44,meteobridge,2013-08-14 01:44:00,
2013-08-13 21:49:00,70.0,59.7,29.92,NW,322,4.9,8.1,70,0.00,,,0.44,meteobridge,2013-08-14 01:49:00,
2013-08-13 21:54:00,70.0,59.7,29.92,WNW,282,0.0,0.9,70,0.00,,,0.44,meteobridge,2013-08-14 01:54:00,
2013-08-13 21:59:00,70.0,59.7,29.93,North,354,0.0,2.9,70,0.00,,,0.44,meteobridge,2013-08-14 01:59:00,
2013-08-13 22:04:00,69.8,59.5,29.93,NW,313,0.0,6.0,70,0.00,,,0.44,meteobridge,2013-08-14 02:04:00,
2013-08-13 22:09:00,69.6,59.4,29.93,North,356,2.9,2.9,70,0.00,,,0.44,meteobridge,2013-08-14 02:09:00,
2013-08-13 22:14:00,69.4,59.5,29.93,NNE,18,2.9,4.9,71,0.00,,,0.44,meteobridge,2013-08-14 02:14:00,
2013-08-13 22:19:00,69.3,59.5,29.93,NNW,342,0.0,4.9,71,0.00,,,0.44,meteobridge,2013-08-14 02:19:00,
2013-08-13 22:24:00,69.1,59.7,29.93,North,356,2.9,10.1,72,0.00,,,0.44,meteobridge,2013-08-14 02:24:00,
2013-08-13 22:29:00,68.7,59.4,29.94,NNW,342,0.0,0.0,72,0.00,,,0.44,meteobridge,2013-08-14 02:29:00,
2013-08-13 22:34:00,68.5,59.5,29.94,NW,320,0.0,0.0,73,0.00,,,0.44,meteobridge,2013-08-14 02:34:00,
2013-08-13 22:39:00,68.4,59.7,29.94,NNW,328,0.0,0.0,74,0.00,,,0.44,meteobridge,2013-08-14 02:39:00,
2013-08-13 22:45:00,68.2,59.5,29.94,NNE,16,0.0,2.0,74,0.00,,,0.44,meteobridge,2013-08-14 02:45:00,
2013-08-13 22:50:00,67.8,59.5,29.94,North,349,0.0,0.0,75,0.00,,,0.44,meteobridge,2013-08-14 02:50:00,
2013-08-13 22:55:00,67.6,59.4,29.94,North,359,0.9,2.0,75,0.00,,,0.44,meteobridge,2013-08-14 02:55:00,
2013-08-13 23:00:00,67.3,59.0,29.95,North,0,0.9,2.0,75,0.00,,,0.44,meteobridge,2013-08-14 03:00:00,
2013-08-13 23:05:00,67.1,58.8,29.95,NW,325,6.9,6.9,75,0.00,,,0.44,meteobridge,2013-08-14 03:05:00,
2013-08-13 23:10:00,66.9,58.8,29.95,NNW,340,0.0,2.9,75,0.00,,,0.44,meteobridge,2013-08-14 03:10:00,
2013-08-13 23:15:00,66.7,59.0,29.96,NNW,342,0.0,0.0,76,0.00,,,0.44,meteobridge,2013-08-14 03:15:00,
2013-08-13 23:20:00,66.7,59.0,29.96,NNE,24,0.0,0.0,76,0.00,,,0.44,meteobridge,2013-08-14 03:20:00,
2013-08-13 23:25:00,66.4,58.6,29.96,NNW,343,0.0,2.0,76,0.00,,,0.44,meteobridge,2013-08-14 03:25:00,
2013-08-13 23:30:00,66.4,58.6,29.96,NNW,344,0.0,0.0,76,0.00,,,0.44,meteobridge,2013-08-14 03:30:00,
2013-08-13 23:35:00,66.4,59.0,29.96,NNW,346,0.0,0.0,77,0.00,,,0.44,meteobridge,2013-08-14 03:35:00,
2013-08-13 23:40:00,66.0,59.0,29.96,NW,323,0.9,2.0,78,0.00,,,0.44,meteobridge,2013-08-14 03:40:00,
2013-08-13 23:46:00,65.8,58.8,29.97,North,353,0.0,2.0,78,0.00,,,0.44,meteobridge,2013-08-14 03:46:00,
2013-08-13 23:51:00,65.8,58.5,29.97,North,10,0.0,2.9,77,0.00,,,0.44,meteobridge,2013-08-14 03:51:00,
2013-08-13 23:56:00,65.7,58.6,29.97,North,10,0.0,0.0,78,0.00,,,0.44,meteobridge,2013-08-14 03:56:00,